Location: Marsån
(66.4167°N, 22.2833°E)
Time: 02:20:33
(UTC+00:00)

Meteor 1-25 Rocket - Pass Details

Date: 24 February 2024
Orbit: 836 x 890 km, 81.2° (Epoch: 14 April)

Event Time Altitude Azimuth Distance (km) Brightness Sun altitude
Exits shadow 19:59:04 39° 209° (SSW) 1,294 5.0 -26.5°
Maximum altitude 20:01:22 82° 293° (WNW) 892 4.2 -26.7°
Drops below altitude 10° 20:07:12 10° 22° (NNE) 2,557 6.9 -27.1°
Sets 20:09:41 0° 23° (NNE) 3,505 7.7 -27.3°
